Childress, TX

1:54 PM CDT on May 28, 2017 (GMT -0500)
Childress Municipal

Weather History for KCDS - March, 2013

Change the Weather History Date:

Sunday, March 3, 2013

  Actual Average Record
Temperature  
Mean Temperature 61 °F 50 °F  
Max Temperature 85 °F 63 °F 88 °F (1974)
Min Temperature 37 °F 36 °F 6 °F (1943)
Degree Days  
Heating Degree Days 4 16  
Month to date heating degree days 40 48  
Since 1 July heating degree days 2419 2608  
Cooling Degree Days 0 0  
Month to date cooling degree days 0 0  
Year to date cooling degree days 0 1  
Growing Degree Days 10 (Base 50)    
Moisture  
Dew Point 26 °F    
Average Humidity 43    
Maximum Humidity 76    
Minimum Humidity 9    
Precipitation  
Precipitation 0.00 in 0.04 in 0.81 in (1988)
Month to date precipitation 0.00 0.13  
Year to date precipitation 3.34 1.91  
Snow  
Snow 0.00 in 0.10 in - ()
Month to date snowfall 0.0 0.1  
Since 1 July snowfall 5.5 6.5  
Snow Depth -    
Sea Level Pressure  
Sea Level Pressure 29.81 in    
Wind  
Wind Speed 14 mph (SW)    
Max Wind Speed 30 mph    
Max Gust Speed 36 mph    
Visibility 10 miles    
Events      
T = Trace of Precipitation, MM = Missing Value Source: NWS Daily Summary

Daily Weather History Graph

Daily Weather History Graph

Search for Another Location

Airport or City:

Trip Planner

Search our weather history database for the weather conditions in past years. The results will help you decide how hot, cold, wet, or windy it might be!

Date:

Astronomy

Mar. 03, 2013 Rise Set
Actual Time 7:07 AM CST 6:39 PM CST
Civil Twilight 6:42 AM CST 7:04 PM CST
Nautical Twilight 6:12 AM CST 7:33 PM CST
Astronomical Twilight 5:43 AM CST 8:02 PM CST
Moon 12:03 AM CST (3/3) 10:40 AM CST (3/3)
Length of Visible Light 12h 22m
Length of Day
11h 32m
Waning Gibbous, 63% of the Moon is Illuminated
Mar 3
Waning Gibbous
Mar 4
Last Quarter
Mar 11
New
Mar 19
First Quarter
Mar 27
Full

Hourly Weather History & Observations

Time (CST) Temp. Windchill Dew Point Humidity Pressure Visibility Wind Dir Wind Speed Gust Speed Precip Events Conditions
12:53 AM 44.1 °F 42.5 °F 32.0 °F 63% 30.12 in 10.0 mi WSW 3.5 mph - N/A   Clear
1:53 AM 42.1 °F - 30.9 °F 65% 30.11 in 10.0 mi Calm Calm - N/A   Clear
2:53 AM 39.9 °F 36.7 °F 30.9 °F 70% 30.09 in 10.0 mi NW 4.6 mph - N/A   Clear
3:53 AM 37.9 °F 35.5 °F 30.9 °F 76% 30.05 in 10.0 mi WNW 3.5 mph - N/A   Clear
5:53 AM 39.0 °F 32.8 °F 30.0 °F 70% 30.03 in 10.0 mi WSW 9.2 mph - N/A   Clear
6:53 AM 37.0 °F 32.4 °F 28.9 °F 73% 30.02 in 10.0 mi WSW 5.8 mph - N/A   Clear
7:53 AM 39.9 °F 35.1 °F 30.0 °F 68% 30.00 in 10.0 mi SW 6.9 mph - N/A   Clear
8:53 AM 51.1 °F - 30.0 °F 44% 29.99 in 10.0 mi SSW 13.8 mph - N/A   Clear
9:53 AM 60.1 °F - 26.1 °F 27% 29.95 in 10.0 mi SW 20.7 mph - N/A   Clear
10:53 AM 66.9 °F - 21.9 °F 18% 29.89 in 10.0 mi SW 25.3 mph 31.1 mph N/A   Clear
11:53 AM 70.0 °F - 21.9 °F 16% 29.86 in 10.0 mi SSW 21.9 mph - N/A   Clear
12:53 PM 72.0 °F - 23.0 °F 16% 29.80 in 10.0 mi SSW 21.9 mph 27.6 mph N/A   Clear
1:53 PM 75.9 °F - 24.1 °F 15% 29.74 in 10.0 mi SSW 25.3 mph 29.9 mph N/A   Clear
2:53 PM 82.0 °F - 24.1 °F 12% 29.69 in 10.0 mi SW 23.0 mph 28.8 mph N/A   Clear
3:53 PM 84.9 °F - 19.9 °F 9% 29.65 in 10.0 mi SW 27.6 mph 34.5 mph N/A   Clear
4:53 PM 82.9 °F - 19.9 °F 10% 29.62 in 10.0 mi SW 25.3 mph 31.1 mph N/A   Clear
5:53 PM 80.1 °F - 21.0 °F 11% 29.60 in 10.0 mi SSW 17.3 mph - N/A   Clear
6:53 PM 68.0 °F - 25.0 °F 20% 29.62 in 10.0 mi WSW 10.4 mph - N/A   Clear
7:53 PM 62.1 °F - 27.0 °F 26% 29.60 in 10.0 mi South 10.4 mph - N/A   Clear
8:53 PM 64.0 °F - 27.0 °F 25% 29.60 in 10.0 mi SW 10.4 mph - N/A   Clear
9:53 PM 61.0 °F - 27.0 °F 27% 29.57 in 10.0 mi SW 10.4 mph - N/A   Clear
10:53 PM 61.0 °F - 25.0 °F 25% 29.57 in 10.0 mi SW 12.7 mph - N/A   Clear
11:53 PM 64.0 °F - 21.9 °F 20% 29.55 in 10.0 mi SW 17.3 mph - N/A   Clear